Página principal
METAR-TAF:

METAR-TAF

Aeroportos :

Cairuão, Tunísia

latitude: 35-40N, longitude: 010-06E, altura: 60 m

Observação actual do tempo

O boletim foi feito há 35 minutos, às 20:00 UTC
Vento 2 kt de sudeste
Temperatura 17°C
Humidade 88%
Pressão 1023 hPa
Visibilidade: 6000 m
Poucas nuvensa uma altura de 2000 ft

METAR: DTTK 142000Z 13002KT 6000 FEW020 17/15 Q1023

Hora: 21:35 (20:35 UTC)


TAF: em falta

Observações e previsões do tempo de mais de 4000 aeroportos (mensagens METAR e TAF).

As estações disponíveis são os pontos amarelos e vermelhos sobre o mapa.

Mova o rato sobre o mapa para ver o nome da estação.

Depois clique no ponto para visualizar as observações e previsões meteorológicas.

Para alterar o mapa : clique nos botões verdes com uma cruz preta para aumentar o zoom; no botão verde com uma pitada de zoom; ou nas setas verdes para mapas adjacentes.


METAR-TAF: